Weather History for KVLD - March, 2013

Change the Weather History Date:

Friday, March 15, 2013

  Actual Average Record
Temperature  
Mean Temperature 57 °F 60 °F  
Max Temperature 76 °F 73 °F 89 °F (2012)
Min Temperature 37 °F 47 °F 37 °F (2006)
Degree Days  
Heating Degree Days 8 6  
Month to date heating degree days 174 106  
Since 1 July heating degree days 1043 1486  
Cooling Degree Days 0 1  
Month to date cooling degree days 3 15  
Year to date cooling degree days 80 25  
Growing Degree Days 6 (Base 50)    
Moisture  
Dew Point 34 °F    
Average Humidity 52    
Maximum Humidity 85    
Minimum Humidity 19    
Precipitation  
Precipitation 0.00 in 0.14 in 1.65 in (1950)
Month to date precipitation 0.35 2.47  
Year to date precipitation 6.50 11.20  
Sea Level Pressure  
Sea Level Pressure 30.25 in    
Wind  
Wind Speed 2 mph (SW)    
Max Wind Speed 7 mph    
Max Gust Speed -    
Visibility 8 miles    
Events      
T = Trace of Precipitation, MM = Missing Value Source: NWS Daily Summary

Daily Weather History Graph

Daily Weather History Graph

Search for Another Location

Airport or City:

Trip Planner

Search our weather history database for the weather conditions in past years. The results will help you decide how hot, cold, wet, or windy it might be!

Date:

Astronomy

Mar. 15, 2013 Rise Set
Actual Time 7:42 AM EDT 7:41 PM EDT
Civil Twilight 7:18 AM EDT 8:05 PM EDT
Nautical Twilight 6:50 AM EDT 8:33 PM EDT
Astronomical Twilight 6:22 AM EDT 9:01 PM EDT
Moon 9:50 AM EDT (3/15) 11:35 PM EDT (3/15)
Length of Visible Light 12h 46m
Length of Day
11h 58m
Waxing Crescent, 15% of the Moon is Illuminated
Mar 15
Waxing Crescent
Mar 19
First Quarter
Mar 27
Full
Apr 3
Last Quarter
Apr 10
New

Hourly Weather History & Observations

Time (EDT) Temp. Dew Point Humidity Pressure Visibility Wind Dir Wind Speed Gust Speed Precip Events Conditions
12:53 AM 39.0 °F 34.0 °F 82% 30.32 in 7.0 mi Calm Calm - N/A   Clear
1:53 AM 37.9 °F 34.0 °F 86% 30.31 in 5.0 mi Calm Calm - N/A   Clear
2:53 AM 37.9 °F 33.1 °F 83% 30.30 in 4.0 mi Calm Calm - N/A   Haze
3:53 AM 37.9 °F 33.1 °F 83% 30.28 in 5.0 mi Calm Calm - N/A   Haze
4:53 AM 37.9 °F 32.0 °F 79% 30.27 in 4.0 mi Calm Calm - N/A   Haze
5:53 AM 37.9 °F 33.1 °F 83% 30.29 in 6.0 mi Calm Calm - N/A   Haze
6:53 AM 37.0 °F 32.0 °F 82% 30.30 in 8.0 mi Calm Calm - N/A   Clear
7:53 AM 37.0 °F 30.9 °F 79% 30.31 in 6.0 mi Calm Calm - N/A   Haze
8:53 AM 46.0 °F 36.0 °F 68% 30.32 in 7.0 mi Calm Calm - N/A   Clear
9:53 AM 54.0 °F 34.0 °F 47% 30.33 in 7.0 mi Calm Calm - N/A   Clear
10:53 AM 63.0 °F 27.0 °F 26% 30.32 in 10.0 mi Variable 3.5 mph - N/A   Clear
11:53 AM 68.0 °F 25.0 °F 20% 30.30 in 10.0 mi Variable 4.6 mph - N/A   Clear
12:53 PM 71.1 °F 28.9 °F 21% 30.28 in 10.0 mi Variable 3.5 mph - N/A   Clear
1:53 PM 73.0 °F 30.9 °F 21% 30.25 in 10.0 mi Variable 6.9 mph - N/A   Clear
2:53 PM 75.0 °F 34.0 °F 22% 30.22 in 10.0 mi Calm Calm - N/A   Clear
3:53 PM 75.9 °F 34.0 °F 22% 30.19 in 10.0 mi Variable 5.8 mph - N/A   Clear
4:53 PM 75.9 °F 34.0 °F 22% 30.16 in 10.0 mi Calm Calm - N/A   Clear
5:53 PM 75.0 °F 35.1 °F 23% 30.15 in 10.0 mi Calm Calm - N/A   Clear
6:53 PM 72.0 °F 36.0 °F 27% 30.15 in 8.0 mi SW 3.5 mph - N/A   Clear
7:53 PM 66.9 °F 37.0 °F 33% 30.16 in 10.0 mi Variable 4.6 mph - N/A   Clear
8:53 PM 62.1 °F 37.0 °F 39% 30.17 in 10.0 mi SSW 3.5 mph - N/A   Clear
9:53 PM 60.1 °F 37.0 °F 42% 30.19 in 10.0 mi Variable 4.6 mph - N/A   Clear
10:53 PM 57.0 °F 39.0 °F 51% 30.20 in 10.0 mi Variable 4.6 mph - N/A   Clear
11:53 PM 55.9 °F 41.0 °F 57% 30.20 in 10.0 mi Variable 3.5 mph - N/A   Clear